CAPE
0 0 59 274 642 395 69 1 0 0 0 3 3 33 196 228 84 57 78 280 357 416 433 1132 1451 1669 1353 1354 1518 1650 1999 1911 1860 1870 1847 1747 1686 1416 1153 1364 1432 1473 1419 1489 1332 1224 726 562 1125
8 1 220 479 360 73 32 0 0 0 0 0 0 108 192 9 3 43 210 329 390 325 536 853 1256 1701 1718 1488 1691 1739 1831 1733 1917 1941 1832 1755 1758 1599 1351 1195 1453 1333 1488 1480 1151 1331 1467 1380 1025
12 31 584 151 414 51 24 0 0 0 0 4 2 199 18 0 0 73 180 264 617 791 1135 1067 1098 956 1509 1632 1540 1673 1728 1755 1824 1705 1579 1882 1886 1778 1621 1446 1516 1439 1306 1321 1558 1583 1532 1482 1072
37 385 395 76 76 51 23 0 0 0 0 92 241 0 0 28 69 133 185 481 777 802 765 703 750 917 838 1705 1670 1729 1530 1676 1826 1504 1661 1708 1684 1830 1861 1747 1620 1711 1651 1603 1690 1703 1755 1853 1255
133 69 10 14 65 31 20 0 0 0 151 303 40 0 1 47 65 197 402 465 582 379 57 458 1586 1636 1456 1376 1643 1634 1879 1821 1740 1635 1613 1814 1804 1954 1907 1835 1733 1775 1722 1684 1702 1862 1802 1724 1089
8 84 0 50 96 42 95 4 0 63 263 457 8 7 42 39 170 307 406 409 115 124 458 960 1485 1560 1585 1354 1652 1813 1718 1370 1538 1645 1616 1699 1861 2081 1968 1971 1730 1870 1793 1710 1785 1709 1576 1130 933
1 2 31 64 242 104 47 4 19 262 247 127 0 7 32 174 167 104 98 24 151 520 587 771 1171 1230 1461 1800 1632 1766 1759 1414 1446 1540 1871 1736 1823 1725 2008 1760 1808 1981 1837 1825 1838 1859 1809 1747 1628
95 90 154 164 137 134 52 41 42 142 153 125 23 24 39 172 53 108 15 39 232 321 689 746 798 857 1125 1124 1667 1723 1814 1712 1639 1648 1574 1769 1895 1759 2048 1503 1728 1895 1876 1817 1731 1838 1849 1905 1376
10 74 188 133 159 230 165 232 230 251 215 145 136 3 105 65 55 40 11 295 248 326 498 589 573 900 1008 1059 1333 1511 1649 1630 1279 1316 1403 1672 1419 1221 1695 1394 1849 1747 1677 1499 1225 1179 1637 1775 1463
350 244 313 328 241 297 303 241 250 147 157 143 50 23 29 75 27 14 57 82 165 281 374 405 514 544 748 528 1304 899 1202 1566 1252 1201 1429 1834 1233 859 747 1142 1465 1121 1011 867 912 1039 1202 1782 2194
456 363 125 337 368 176 160 188 86 90 60 54 140 88 62 21 22 20 60 105 128 159 144 289 361 520 469 383 485 627 1167 1110 1031 827 589 785 793 985 738 1318 1374 1359 1587 1414 1487 1636 1552 721 1131
268 486 261 255 315 205 120 125 68 59 77 96 74 35 1 11 4 15 64 115 118 68 121 131 120 265 181 186 316 524 714 914 526 830 1130 1171 872 1010 1414 919 954 1430 1015 1278 1189 887 1238 1063 973
270 290 79 60 245 263 156 55 57 42 21 74 38 1 0 3 0 19 64 71 63 57 88 87 154 556 755 214 90 566 561 816 567 1140 1194 1393 1260 1006 1352 1527 1283 1174 1110 891 1086 888 909 973 914
254 311 210 268 455 212 123 33 3 0 11 9 23 1 0 1 0 12 42 46 49 45 35 85 485 508 584 227 341 271 627 488 737 960 1115 1435 1166 1482 1173 1429 991 1183 1386 1128 1195 1389 681 639 486
383 204 126 58 218 223 141 47 15 2 5 0 2 0 1 0 0 3 29 41 95 46 34 176 358 306 243 298 345 550 421 502 550 999 1287 1363 1393 1729 1352 952 1281 1251 1285 1808 1243 922 1022 538 494
346 121 76 53 127 141 234 51 9 17 11 0 3 3 2 8 6 3 8 36 46 30 27 100 232 146 150 362 540 491 651 551 586 694 1020 1487 1823 1595 1457 1252 1012 1063 1361 1057 787 771 536 686 759
103 215 50 142 118 51 43 105 72 15 15 18 19 21 35 42 41 31 27 36 33 22 84 80 127 159 354 478 687 497 880 670 645 789 1201 1504 1580 1695 1796 1579 1360 1878 1191 915 842 322 1014 612 767
3 29 141 51 9 14 20 49 139 35 47 47 45 56 51 63 65 58 49 50 45 87 114 106 77 222 647 794 523 530 916 677 563 910 1281 1421 1422 1550 1860 1415 1431 2179 1388 1118 1089 1526 733 784 835
106 48 78 51 3 0 15 38 34 177 126 53 73 53 63 54 76 81 69 44 51 101 118 70 188 298 583 283 402 514 829 791 938 1402 1324 1391 1432 1525 1817 1654 1482 1707 1542 1793 1636 1656 1218 660 643
36 258 60 29 18 8 27 55 10 37 220 123 86 41 79 77 124 122 127 96 53 82 43 93 432 527 858 386 787 880 622 606 712 952 1153 1419 1291 1566 1364 1856 1576 1616 1443 1812 2137 1907 1624 611 604
53 105 37 1 59 31 18 9 29 20 63 140 165 125 111 115 41 167 212 136 135 61 190 260 455 674 921 608 932 1128 1033 1065 521 810 1017 1132 1288 1316 1740 1737 2089 1489 1793 1578 2060 1500 1659 825 653
20 188 91 3 78 0 27 2 10 37 42 22 49 93 65 112 63 86 211 221 121 187 205 487 652 881 921 1212 782 794 726 397 774 795 826 1019 1206 1200 1307 1505 1710 1870 1859 1875 1724 1597 2405 1820 644
15 11 7 58 123 6 44 18 0 87 55 7 0 37 160 90 69 58 171 122 122 230 248 369 792 893 806 919 682 1035 543 681 468 835 1172 1323 1149 1084 1078 1416 1624 1750 1630 1496 2013 1677 2023 1718 1656
4 48 114 144 81 30 99 94 12 1 77 71 7 0 23 122 133 103 114 197 137 228 200 310 662 952 804 1162 1183 1194 861 771 867 813 893 923 810 1024 1054 1213 1453 1500 1545 1529 1324 1740 1634 2101 2211
60 165 100 23 16 47 65 77 84 103 80 196 145 4 0 71 58 131 100 165 272 428 361 217 624 821 790 1041 771 947 968 934 957 726 628 627 782 515 925 1175 1221 1166 1440 1848 1356 1635 2109 1526 1786
7 56 135 65 104 78 135 69 172 232 219 389 325 64 0 52 191 104 168 240 246 255 252 240 655 810 867 825 847 843 865 555 333 512 771 797 828 656 1229 1200 1081 1118 1588 1471 1695 1389 967 1283 1312
2 20 60 110 0 17 42 192 189 325 264 260 379 378 115 132 13 132 162 276 145 281 316 370 663 810 792 818 899 936 775 656 577 203 945 1175 853 991 1501 974 1064 1132 1118 1355 1594 1261 1628 1710 1681
0 7 16 4 6 21 11 126 149 226 311 294 341 431 479 234 84 140 215 208 212 366 417 497 543 675 611 543 540 649 603 591 648 699 682 305 585 825 1167 1188 1333 1388 1390 1453 1501 1061 1214 1361 1316
0 0 0 19 5 7 43 132 305 339 489 517 500 395 481 302 211 115 271 224 326 513 489 547 489 788 643 591 451 393 316 291 368 261 394 596 666 791 1104 1320 1319 1166 1513 1483 1445 1735 1294 1523 1248
0 0 0 0 0 2 5 267 558 504 485 577 468 404 565 431 290 203 124 184 871 718 749 808 1270 785 573 657 688 589 585 396 281 296 373 734 899 1045 1084 1434 1252 971 1258 1329 1519 1732 901 982 1078
CIN
-0 -0 -46 -13 -0 -2 -2 -0 -0 -0 -1 -1 -4 -4 -5 -8 -9 -16 -12 -3 -1 -2 -23 -1 -0 -0 -0 -0 -0 -0 -0 -0 -0 -0 -0 -0 -0 -0 -0 -0 -0 -0 -0 -0 -0 -0 -4 -14 -0
-6 -3 -18 -3 -16 -4 -2 -0 -0 -0 -0 -0 -0 -3 -19 -24 -33 -59 -2 -2 -2 -3 -2 -5 -6 -0 -0 -0 -0 -0 -0 -0 -0 -0 -0 -0 -0 -0 -0 -0 -1 -3 -0 -0 -1 -0 -0 -0 -0
-29 -56 -2 -20 -4 -3 -2 -0 -0 -0 -0 -1 -2 -6 -2 -0 -0 -12 -4 -2 -18 -13 -1 -20 -17 -18 -0 -0 -0 -0 -0 -0 -0 -1 -4 -0 -0 -0 -0 -0 -0 -0 -4 -2 -0 -0 -0 -0 -2
-7 -3 -7 -67 -4 -4 -2 -0 -0 -0 -0 -9 -4 -0 -0 -16 -3 -6 -3 -5 -12 -1 -5 -40 -31 -10 -12 -0 -0 -0 -3 -1 -0 -4 -3 -1 -1 -0 -1 -0 -0 -0 -0 -0 -0 -0 -0 -0 -0
-30 -22 -30 -39 -2 -2 -5 -0 -0 -0 -8 -3 -4 -0 -0 -6 -9 -3 -7 -11 -17 -8 -46 -28 -0 -0 -0 -0 -0 -0 -0 -1 -0 -0 -2 -0 -0 -0 -0 -0 -0 -0 -0 -0 -0 -0 -0 -0 -9
-1 -12 -6 -5 -0 -3 -5 -1 -0 -9 -1 -1 -3 -2 -17 -9 -3 -11 -4 -6 -7 -3 -2 -1 -1 -0 -0 -0 -0 -0 -0 -2 -1 -0 -0 -1 -0 -0 -0 -0 -0 -0 -1 -1 -1 -1 -4 -16 -30
-18 -26 -6 -1 -1 -2 -5 -3 -2 -3 -0 -10 -0 -4 -13 -1 -4 -1 -4 -4 -2 -15 -3 -1 -1 -8 -0 -0 -0 -0 -0 -2 -4 -1 -0 -1 -0 -0 -0 -2 -0 -0 -1 -6 -7 -7 -8 -9 -11
-9 -4 -5 -5 -1 -1 -2 -2 -3 -2 -2 -8 -7 -17 -6 -9 -2 -6 -5 -3 -2 -10 -6 -3 -3 -0 -1 -1 -0 -0 -0 -0 -7 -6 -15 -11 -5 -4 -3 -20 -12 -8 -14 -16 -20 -15 -20 -18 -34
-54 -2 -1 -2 -1 -1 -2 -10 -5 -8 -3 -3 -3 -9 -12 -1 -3 -3 -3 -4 -17 -6 -0 -11 -2 -9 -4 -1 -3 -10 -12 -17 -24 -25 -34 -34 -4 -2 -2 -22 -22 -27 -28 -37 -43 -38 -41 -46 -52
-0 -0 -1 -5 -3 -3 -4 -3 -2 -14 -17 -20 -3 -7 -17 -7 -1 -1 -2 -1 -3 -21 -5 -3 -2 -2 -2 -3 -9 -1 -10 -2 -4 -1 -9 -13 -7 -4 -5 -29 -37 -50 -54 -56 -50 -42 -55 -64 -33
-0 -0 -17 -4 -25 -11 -3 -1 -3 -3 -2 -1 -27 -72 -38 -2 -1 -3 -3 -2 -3 -2 -5 -21 -13 -8 -3 -5 -1 -2 -6 -2 -1 -1 -1 -12 -8 -7 -7 -22 -16 -16 -27 -31 -23 -21 -29 -2 -2
-1 -1 -1 -36 -40 -3 -2 -1 -4 -2 -2 -8 -3 -35 -0 -1 -1 -1 -1 -1 -4 -6 -3 -3 -5 -3 -1 -2 -2 -0 -4 -4 -2 -1 -0 -3 -0 -3 -1 -2 -2 -2 -0 -2 -1 -0 -1 -1 -5
-1 -0 -33 -46 -51 -11 -4 -2 -1 -2 -3 -15 -2 -1 -0 -2 -0 -4 -4 -2 -2 -2 -14 -20 -5 -4 -3 -4 -16 -2 -3 -5 -4 -1 -2 -2 -3 -1 -2 -4 -2 -1 -0 -2 -1 -1 -1 -2 -1
-2 -1 -16 -17 -1 -3 -2 -3 -3 -0 -4 -2 -2 -1 -0 -2 -1 -2 -2 -2 -4 -4 -4 -14 -3 -3 -1 -14 -2 -4 -9 -2 -1 -2 -1 -0 -2 -1 -1 -2 -2 -3 -3 -2 -1 -3 -2 -1 -10
-3 -1 -4 -49 -24 -19 -28 -5 -11 -2 -3 -1 -1 -0 -2 -0 -0 -1 -2 -3 -2 -2 -1 -5 -2 -2 -16 -9 -3 -0 -0 -0 -2 -1 -1 -1 -1 -3 -1 -4 -1 -2 -7 -7 -3 -4 -3 -2 -8
-2 -2 -1 -44 -25 -19 -21 -3 -22 -2 -2 -0 -3 -2 -2 -2 -2 -1 -3 -2 -4 -3 -3 -17 -2 -20 -18 -4 -2 -1 -1 -2 -2 -2 -2 -1 -0 -1 -1 -6 -2 -1 -4 -1 -2 -2 -1 -2 -3
-26 -0 -2 -1 -8 -33 -47 -2 -1 -3 -3 -2 -2 -3 -3 -4 -3 -3 -4 -3 -3 -3 -7 -12 -5 -25 -1 -2 -1 -1 -4 -1 -1 -1 -3 -0 -0 -4 -4 -2 -7 -8 -3 -1 -2 -7 -5 -5 -3
-14 -13 -1 -17 -55 -41 -66 -3 -10 -1 -3 -3 -2 -5 -4 -5 -2 -2 -5 -4 -4 -4 -13 -11 -10 -3 -1 -1 -3 -1 -1 -8 -2 -1 -6 -3 -1 -1 -2 -0 -1 -10 -3 -1 -3 -10 -9 -7 -12
-78 -2 -25 -5 -0 -0 -13 -1 -25 -23 -2 -5 -6 -3 -2 -5 -1 -3 -4 -4 -2 -15 -28 -15 -5 -1 -1 -3 -1 -3 -1 -0 -2 -6 -2 -0 -0 -0 -9 -1 -4 -2 -1 -8 -1 -4 -10 -6 -17
-2 -10 -46 -14 -33 -10 -0 -2 -11 -31 -2 -3 -3 -6 -4 -3 -6 -3 -5 -3 -3 -9 -2 -11 -1 -1 -1 -1 -4 -5 -4 -3 -3 -1 -1 -0 -0 -0 -2 -2 -1 -15 -3 -0 -0 -13 -5 -5 -21
-3 -22 -22 -19 -2 -4 -35 -21 -2 -31 -35 -29 -28 -23 -4 -3 -7 -2 -8 -1 -1 -3 -2 -3 -1 -1 -3 -2 -5 -2 -3 -3 -2 -2 -0 -2 -0 -0 -0 -1 -1 -6 -6 -1 -2 -3 -9 -2 -26
-8 -27 -27 -28 -1 -0 -26 -8 -21 -11 -31 -55 -49 -11 -42 -3 -9 -3 -3 -1 -2 -3 -2 -2 -2 -1 -5 -1 -2 -5 -4 -3 -5 -5 -2 -1 -1 -1 -0 -1 -0 -3 -4 -3 -5 -4 -9 -12 -1
-20 -3 -4 -14 -7 -35 -41 -31 -0 -37 -31 -93 -5 -54 -6 -34 -6 -7 -0 -2 -3 -2 -2 -1 -1 -1 -1 -1 -5 -3 -7 -21 -70 -3 -6 -0 -1 -0 -0 -1 -0 -1 -3 -2 -4 -6 -14 -5 -10
-0 -10 -5 -17 -7 -5 -20 -8 -18 -63 -169 -127 -196 -0 -77 -8 -9 -14 -7 -3 -3 -2 -4 -2 -1 -1 -1 -1 -0 -3 -8 -11 -11 -6 -9 -2 -1 -1 -0 -0 -1 -0 -7 -3 -4 -0 -10 -10 -10
-3 -2 -3 -6 -5 -2 -37 -3 -20 -104 -149 -71 -77 -147 -0 -28 -28 -4 -15 -2 -5 -8 -9 -2 -2 -2 -1 -1 -0 -0 -1 -8 -10 -12 -5 -13 -4 -1 -7 -0 -0 -1 -8 -0 -1 -9 -1 -8 -5
-3 -2 -4 -2 -2 -11 -4 -3 -4 -32 -65 -3 -13 -88 -0 -37 -13 -11 -13 -3 -13 -25 -6 -2 -1 -0 -1 -2 -1 -1 -1 -1 -5 -1 -10 -20 -10 -13 -10 -7 -0 -0 -0 -0 -0 -1 -11 -1 -4
-1 -3 -3 -3 -0 -41 -8 -8 -104 -4 -31 -9 -6 -5 -52 -18 -45 -47 -4 -13 -154 -3 -8 -1 -2 -1 -2 -1 -2 -1 -0 -8 -5 -49 -9 -6 -2 -11 -1 -0 -1 -1 -2 -1 -0 -3 -1 -1 -3
-0 -9 -4 -7 -6 -13 -15 -31 -4 -25 -12 -25 -3 -4 -3 -3 -46 -21 -2 -12 -2 -4 -3 -4 -3 -2 -1 -1 -2 -1 -1 -0 -1 -2 -4 -36 -7 -17 -3 -2 -1 -1 -1 -1 -1 -1 -3 -1 -1
-0 -0 -0 -5 -6 -11 -8 -10 -44 -53 -8 -10 -3 -3 -6 -24 -44 -67 -25 -31 -3 -3 -3 -5 -6 -5 -1 -2 -2 -10 -2 -7 -6 -10 -6 -1 -9 -27 -11 -1 -0 -2 -0 -0 -3 -2 -5 -1 -0
-0 -0 -0 -0 -1 -7 -18 -24 -7 -11 -15 -4 -2 -10 -5 -41 -50 -62 -52 -58 -12 -24 -4 -9 -7 -5 -1 -3 -1 -1 -1 -10 -1 -10 -7 -0 -1 -3 -7 -0 -0 -1 -0 -1 -0 -0 -1 -1 -1
Wind_Speed
19 19 16 16 17 19 25 26 28 29 28 27 21 8 6 5 7 3 32 25 24 23 23 27 26 24 16 8 5 5 7 7 9 11 16 18 19 19 18 17 17 16 16 15 15 14 13 12 10
18 16 16 15 19 24 26 26 30 29 26 28 27 27 6 4 14 27 26 24 26 23 25 23 26 24 6 12 6 10 9 7 9 14 18 18 18 19 19 18 16 14 13 13 13 12 13 11 9
17 15 15 15 16 22 26 26 30 29 29 28 24 5 8 17 22 22 23 27 13 14 16 16 17 23 15 8 9 5 6 4 6 11 15 19 18 18 18 17 16 13 10 7 8 8 8 8 7
15 15 16 19 21 21 23 27 29 33 26 22 28 24 32 9 14 22 27 19 20 16 16 19 22 25 24 14 8 6 5 3 3 3 24 28 29 5 20 15 15 11 10 7 5 3 4 5 5
12 15 15 22 21 23 25 26 30 32 28 27 13 33 31 18 24 28 13 22 22 27 19 19 21 26 26 22 13 11 7 5 6 12 19 27 29 25 18 16 13 10 10 9 4 5 7 4 3
13 13 16 28 26 22 21 22 31 29 12 18 29 32 29 30 31 30 30 30 27 27 18 21 2 16 25 25 22 16 9 12 16 22 22 22 27 26 27 23 16 15 11 7 4 2 4 3 2
14 13 27 27 27 23 22 23 31 25 28 24 30 28 30 30 31 30 30 29 26 10 17 27 25 23 27 24 20 13 4 2 14 6 24 27 27 27 26 23 16 14 6 6 4 3 3 3 5
15 18 24 28 27 24 16 21 17 26 16 17 21 26 31 31 29 28 27 29 3 20 21 20 27 27 26 22 3 3 19 19 27 29 29 28 28 27 26 25 19 9 3 3 3 7 14 9 11
14 14 19 23 22 20 7 10 10 14 19 24 17 27 27 31 29 25 29 26 27 16 18 27 27 5 26 27 11 6 28 29 29 28 28 28 27 26 26 20 13 9 13 14 12 17 20 22 20
18 18 12 17 7 23 23 3 16 15 25 19 14 22 24 31 31 29 29 28 28 25 26 18 26 27 26 25 27 27 27 27 26 24 24 23 6 24 28 26 24 20 19 19 20 18 17 20 20
18 18 17 12 12 13 15 5 6 7 26 4 26 30 32 31 31 30 29 28 27 28 27 20 26 27 25 27 27 27 26 27 25 24 21 24 28 28 27 25 24 21 19 19 19 16 17 8 9
19 17 13 5 11 1 4 4 21 11 7 9 27 31 30 31 31 30 29 28 24 27 27 26 26 20 23 25 25 26 28 28 27 26 25 25 23 20 15 19 21 18 16 16 11 10 10 9 13
15 10 7 6 16 10 3 3 8 11 2 10 20 27 30 31 31 29 29 26 26 27 27 26 27 17 22 24 26 22 28 25 27 26 22 23 18 21 19 17 14 15 18 18 16 13 14 18 16
12 6 3 4 9 12 7 3 5 4 4 12 16 26 28 30 31 30 29 28 28 27 27 27 22 27 25 24 24 28 24 28 27 26 20 19 22 18 21 20 20 15 10 12 11 12 16 17 16
11 3 2 9 11 13 16 8 2 2 11 12 17 22 20 28 27 30 29 28 26 27 25 28 26 27 28 28 29 25 28 26 26 24 22 17 18 16 16 16 15 16 18 20 20 20 19 18 17
12 6 10 8 17 17 20 4 2 5 10 13 12 15 9 10 13 30 29 28 22 22 26 28 26 26 28 28 27 26 26 26 25 25 23 20 17 18 17 19 17 18 18 19 17 19 15 14 12
16 18 16 9 20 20 18 8 6 7 7 9 10 8 11 10 5 6 22 24 21 19 25 27 23 26 23 29 24 25 25 25 24 23 23 19 20 18 16 13 17 18 17 17 18 15 14 18 16
25 27 14 15 18 19 19 15 17 12 11 13 8 8 7 9 9 6 10 9 17 19 24 24 25 23 24 26 26 25 24 23 23 16 8 21 20 18 17 16 18 18 15 14 9 12 14 13 16
10 27 7 8 7 14 16 15 23 25 21 21 28 16 8 8 8 7 8 11 12 18 21 21 23 24 25 25 25 25 19 20 23 8 20 20 20 19 18 19 20 16 19 10 16 18 18 17 17
24 10 8 9 12 11 8 21 25 30 32 34 22 30 17 14 10 7 3 12 15 16 18 21 18 24 27 25 17 19 23 22 18 14 22 21 21 19 19 16 18 4 10 16 14 15 15 13 16
23 20 14 7 18 8 6 18 33 33 34 35 36 32 33 16 13 8 8 11 13 14 17 19 14 21 27 24 24 23 14 11 15 8 20 12 21 17 16 19 12 19 16 17 16 15 15 9 14
25 9 12 5 0 13 22 15 17 28 36 42 42 37 37 24 11 11 23 8 12 11 15 13 17 18 26 23 24 4 23 21 6 17 8 9 16 19 14 17 18 19 14 9 17 16 15 15 6
16 16 5 25 14 9 23 14 17 31 33 46 49 44 37 38 12 10 9 9 10 9 10 11 15 18 25 22 25 22 24 23 17 8 9 14 9 13 12 12 12 16 18 11 17 17 16 16 15
19 19 17 17 23 25 20 28 21 32 26 36 44 48 41 40 21 23 12 8 6 10 6 8 8 16 20 2 5 23 23 20 16 9 11 15 13 13 10 11 10 9 19 11 17 16 18 15 16
21 21 26 28 30 26 16 24 21 6 22 19 37 37 41 40 40 36 19 14 7 10 7 5 5 7 10 6 2 12 17 20 18 15 18 10 17 13 11 13 10 12 11 10 13 13 11 16 18
27 27 27 26 27 25 9 25 17 3 7 17 27 29 32 31 40 42 21 10 10 9 6 4 4 5 6 4 1 5 15 23 23 21 20 19 10 18 11 12 12 13 10 13 10 13 13 11 14
22 32 26 24 21 28 17 10 7 5 5 8 19 23 28 27 37 42 41 13 42 9 9 7 4 4 4 3 3 5 8 27 21 19 7 18 9 9 10 11 14 12 13 15 11 15 9 10 8
32 22 32 32 34 27 14 15 6 12 10 1 7 14 19 27 33 23 24 28 10 10 8 7 5 4 3 4 6 6 6 15 25 14 25 13 14 14 8 8 9 12 12 12 12 16 9 8 17
28 29 29 33 34 38 28 20 5 2 2 5 2 2 14 16 23 19 28 31 13 11 8 10 6 4 3 4 7 10 10 15 17 21 23 22 18 18 16 14 15 17 22 14 7 22 14 9 8
27 28 31 31 32 33 35 19 18 8 6 8 7 4 4 7 15 15 20 34 9 20 13 7 19 4 4 3 6 11 16 16 15 16 19 17 15 16 18 16 12 12 10 9 8 12 11 7 7
Wind_Direction
134 134 159 158 143 135 86 86 95 97 88 93 150 184 331 259 232 43 113 97 93 85 84 100 137 144 151 216 248 313 346 338 356 14 34 41 44 45 46 43 42 41 39 36 34 30 24 23 17
149 135 142 160 144 90 87 98 108 112 89 107 124 102 22 245 42 90 97 93 103 88 99 86 110 91 328 196 258 5 353 335 358 26 43 45 45 50 50 46 39 32 29 31 30 27 25 18 9
152 130 89 218 169 90 100 102 120 106 103 120 133 310 191 78 77 84 90 103 60 61 60 61 60 103 182 225 218 275 234 290 340 15 36 49 50 49 47 42 36 28 17 7 11 10 7 5 1
107 106 100 186 81 81 95 106 108 116 146 150 93 131 90 32 59 86 101 75 76 69 59 68 82 101 138 187 207 216 232 306 310 261 75 124 119 102 53 35 30 18 17 3 351 299 291 348 349
83 28 185 179 83 86 100 103 113 116 137 132 157 100 114 150 84 102 62 92 92 107 73 71 75 114 122 155 180 187 203 218 208 176 157 128 112 78 46 37 26 14 20 14 356 355 1 336 312
46 62 228 146 115 93 93 102 119 137 169 169 96 106 130 102 111 119 129 128 108 105 66 76 250 174 135 136 148 168 192 180 167 150 147 65 89 83 86 65 35 33 22 7 350 315 343 314 278
43 70 176 136 125 100 101 109 142 100 134 114 111 99 119 110 121 122 117 120 129 45 83 112 93 81 117 145 159 180 1 223 170 190 75 84 90 94 88 65 39 33 359 353 335 216 308 270 210
55 116 186 169 126 112 96 172 205 168 196 82 92 129 119 127 116 111 103 130 230 69 81 169 114 112 98 74 348 240 161 159 132 109 109 102 96 94 92 84 52 9 275 238 271 188 164 183 177
51 243 225 162 120 112 222 217 226 218 196 171 202 112 110 122 117 101 128 101 110 161 172 134 134 136 140 123 86 158 127 114 107 119 123 118 96 95 100 68 167 199 178 169 171 150 145 142 146
217 225 237 234 89 123 125 103 218 216 185 200 124 97 105 127 129 119 131 130 119 108 149 173 137 140 152 150 140 134 135 120 124 138 136 137 354 77 100 129 138 155 155 156 142 157 165 155 158
267 251 239 226 227 107 103 76 242 73 142 140 115 120 129 124 133 130 131 133 115 123 135 79 158 149 151 138 143 142 138 134 140 140 148 126 112 114 123 134 137 151 152 156 149 166 171 226 221
276 282 269 205 244 168 93 239 217 244 82 94 121 125 124 132 136 133 142 125 93 138 142 147 157 178 163 154 153 151 137 133 132 139 139 135 141 151 171 155 149 163 167 163 188 193 197 194 189
290 312 44 104 245 239 244 270 253 246 227 103 113 122 127 134 140 136 147 115 115 129 131 115 148 189 171 159 152 167 142 156 113 137 150 141 161 152 154 166 174 167 155 153 165 173 176 166 174
300 314 19 288 240 235 243 255 263 246 138 115 116 124 127 134 143 143 146 136 136 122 123 119 93 125 158 163 162 146 152 141 140 136 158 160 142 166 153 158 156 170 184 180 180 184 170 171 172
300 306 276 274 248 249 238 242 273 196 120 123 121 121 117 132 129 150 142 139 122 129 115 135 118 137 135 145 144 157 137 144 144 143 150 171 164 177 175 175 178 166 156 152 151 156 166 167 172
275 287 256 271 241 236 231 229 189 181 134 127 125 119 115 106 101 165 145 145 111 107 121 137 122 113 124 126 151 149 149 139 138 137 146 159 178 177 173 165 168 163 165 152 169 166 180 193 205
268 263 247 264 242 235 241 227 230 186 166 147 131 134 125 114 102 87 121 126 114 104 122 137 107 119 103 146 165 156 154 145 145 150 146 170 170 177 185 196 177 168 167 169 159 183 199 179 195
248 252 246 255 246 245 242 245 229 219 215 222 205 143 147 127 112 101 99 91 108 109 123 127 126 112 113 157 167 146 160 173 157 194 258 170 174 180 182 183 172 175 186 168 260 219 212 206 206
277 180 249 304 285 266 258 238 230 227 230 227 220 225 151 137 126 111 103 101 100 114 123 120 122 127 129 131 148 169 197 189 163 6 178 177 174 177 181 160 155 181 122 251 184 172 163 188 195
268 295 271 306 270 301 285 234 236 232 224 217 227 220 160 146 139 131 234 114 116 116 120 126 114 135 159 148 216 210 136 162 137 78 164 172 152 178 170 203 176 232 84 191 206 211 212 224 214
263 262 269 291 230 275 359 251 238 235 231 225 221 222 174 160 152 158 144 131 123 121 125 130 116 134 171 176 178 189 249 263 234 342 167 157 184 129 231 187 261 168 201 135 200 209 216 254 238
252 279 268 56 135 255 207 259 241 230 228 218 212 218 208 162 167 160 158 148 136 126 129 124 133 133 163 182 168 48 162 146 62 127 341 353 258 171 97 141 169 168 239 339 166 211 228 241 319
263 275 256 147 265 273 232 261 232 182 205 200 206 204 219 210 181 228 174 161 146 136 134 129 133 138 161 157 206 160 175 213 172 8 14 273 13 221 106 94 91 155 194 36 241 205 217 227 233
265 266 271 279 270 264 261 230 246 192 175 182 204 206 196 203 233 162 229 207 194 148 142 139 136 143 151 56 274 223 227 239 257 52 64 120 95 104 69 73 19 32 232 37 146 175 186 236 252
253 250 256 258 253 262 283 258 267 144 166 163 181 180 188 193 221 187 197 167 205 239 162 154 154 148 142 124 80 281 264 247 249 223 152 330 133 92 74 109 78 107 112 28 121 117 184 157 222
249 254 250 254 255 266 287 266 273 53 115 153 164 171 173 179 225 209 164 221 225 178 205 194 178 168 158 145 115 307 278 230 198 193 277 197 54 172 74 101 105 114 81 128 78 133 137 120 150
255 249 260 261 281 270 282 304 321 53 63 137 158 167 177 179 183 217 215 176 196 191 235 230 204 201 205 224 266 296 302 231 256 284 57 170 6 38 68 72 123 107 110 143 105 163 77 19 44
254 266 249 251 251 262 284 279 332 304 299 283 151 164 169 176 179 188 240 237 217 230 223 232 209 223 223 250 269 283 296 286 252 283 248 311 244 304 66 11 3 117 111 125 124 175 86 71 197
250 255 258 260 254 257 269 283 340 293 40 289 278 227 162 168 172 182 237 239 217 228 193 170 191 217 233 257 270 280 284 284 285 279 271 273 297 298 304 315 310 290 237 163 114 230 314 57 87
254 255 256 255 255 261 266 294 297 328 317 299 298 284 174 164 168 190 198 239 208 239 240 220 258 201 227 239 277 279 278 283 287 289 284 291 303 298 287 300 319 326 353 9 126 156 346 46 68